Regional Weather Roundup
Issued by NWS Wakefield, VA

Home | Current Version | Previous Version | Text Only | Print | Product List | Glossary On
Versions: 1 2 3 4 5 6 7 8 9 10 11 12 13 14 15 16 17 18 19 20 21 22 23 24 25 26 27 28 29 30 31 32 33 34 35 36 37 38 39 40 41 42 43 44 45 46 47 48 49 50
000
ASUS41 KAKQ 270715
RWRAKQ

REGIONAL WEATHER ROUNDUP
NATIONAL WEATHER SERVICE WAKEFIELD VA
300 AM EDT MON APR 27 2015

Note: "fair" indicates few or no clouds below 12,000 feet with no
significant weather and/or obstructions to visibility. * = Denotes
station may not report precipitation (e.g., rain,snow,etc.),
thunder or fog.

VAZ042-051-052>054-056-270800-
NORTHERN VIRGINIA

CITY           SKY/WX    TMP DP  RH WIND       PRES   REMARKS
WASH NATIONAL  PTCLDY    52  32  46 NE7       29.75S
DULLES         PTCLDY    47  32  56 N6        29.76R
FORT BELVOIR   CLEAR     49  31  48 VRB2      29.74S
QUANTICO       CLEAR     51  37  58 NE10      29.74S
FREDERICKSBRG* CLEAR     41  41 100 CALM      29.72F
STAFFORD*      CLEAR     42  37  83 N6        29.77S
WARRENTON      CLEAR     40  37  89 N6        29.74S
CULPEPER*      CLEAR     45  37  76 N6        29.76R
MANASSAS*      CLEAR     46  37  71 N7        29.75R
LEESBURG*      MOCLDY    48  34  57 N3        29.77S
WINCHESTER     CLEAR     43  28  56 CALM      29.77S
FRONT ROYAL*   FAIR      46  30  53 CALM      29.76S
LURAY*         FAIR      45  36  70 NE5       29.76S
$$

VAZ048-049-060>072-079>083-270800-
CENTRAL AND SOUTH CENTRAL VIRGINIA

CITY           SKY/WX    TMP DP  RH WIND       PRES   REMARKS
RICHMOND       CLEAR     43  39  86 S3        29.72F
CHESTERFIELD*  FAIR      41  30  65 CALM      29.73F
PETERSBURG*    CLEAR     38  37  98 CALM      29.74F FOG
HANOVER        CLEAR     42  40  92 CALM      29.73F
TAPPAHANNOCK*  CLEAR     38  35  88 CALM      29.72F
QUINTON*       FAIR      40  40  97 CALM      29.72F
CHARLOTTSVILLE CLEAR     45  39  79 CALM      29.73S
GORDONSVILLE*  FAIR      37  36  98 N3        29.72S
ORANGE*        CLEAR     48  37  66 NW9       29.74S
LOUISA*        CLEAR     43  39  87 CALM      29.71F
BUMPASS*       FAIR      44  40  87 CALM      29.71F
FARMVILLE*     CLEAR     39  39 100 CALM      29.73S FOG
CREWE*         FAIR      39  37  95 CALM      29.73F
FORT PICKETT*    N/A     39  38  97 CALM      29.73F VSB 3/4
CHASE CITY*    FAIR      42  42 100 CALM      29.75F
CLARKSVILLE*   FAIR      39  39 100 CALM      29.74F
SOUTH HILL*    CLEAR     39  38  98 CALM      29.80F
LAWRENCEVILLE* FAIR      39  39 100 CALM      29.74F
EMPORIA*       FOG       34  34 100 CALM      29.76F VSB 1/4
$$

VAZ088>098-270800-
SOUTHEAST VIRGINIA

CITY           SKY/WX    TMP DP  RH WIND       PRES   REMARKS
NORFOLK        CLEAR     43  39  86 SW6       29.73S
VIRGINIA BEACH CLEAR     44  39  82 SW3       29.72F
NORFOLK NAVAL  CLEAR     47  41  80 W3        29.74F
WEST POINT*    CLEAR     40  38  91 CALM      29.73F
SALUDA*        FAIR      44  41  89 SW7       29.71F
NEWPORT NEWS   CLEAR     44  39  82 CALM      29.73F
LANGLEY AFB    CLEAR     43  39  87 W3        29.72F
FORT EUSTIS    CLEAR     44  44 100 CALM      29.71F
WILLIAMSBURG*  CLEAR     46  45  93 CALM      29.73F
HR EXEC AP*    FAIR      37  34  87 CALM      29.75S
FRANKLIN*      CLEAR     39  38  99 CALM      29.74F
WAKEFIELD      CLEAR     41  38  89 CALM      29.73F
$$

VAZ020-022-025-037-045-270800-
WEST CENTRAL AND SOUTHWEST VIRGINIA

CITY           SKY/WX    TMP DP  RH WIND       PRES   REMARKS
STAUNTON*      CLEAR     37  34  89 CALM      29.78S
WAYNESBORO*    FAIR      37  37  97 SE3       29.75F
HOT SPRINGS VA CLEAR     38  30  71 N10       29.73F
LYNCHBURG      CLEAR     38  38 100 CALM      29.76S FOG
DANVILLE       PTCLDY    44  40  85 SW6       29.76F
SOUTH BOSTON*    N/A     40  38  95 CALM      29.76S VSB 1/2
MARTINSVILLE   FOG       40  40 100 CALM      29.80S VSB 1/4
ROANOKE        PTCLDY    44  40  85 CALM      29.78F
BLACKSBURG     CLEAR     37  36  96 CALM      29.81F
DUBLIN*        CLEAR     43  39  87 W5        29.80F
MARION*        CLEAR     41  39  95 W7        29.83F FOG
HILLSVILLE*    MOCLDY    44  38  80 NW10      29.78F
RICHLANDS*     FAIR      40  38  91 W3        29.82F
WISE*          CLEAR     43  32  65 NW5       29.84S
ABINGDON*      CLEAR     45  42  91 CALM      29.82F
$$

MDZ021>025-VAZ099-100-270800-
SOUTHERN MARYLAND AND THE DELMARVA PENINSULA

CITY           SKY/WX    TMP DP  RH WIND       PRES   REMARKS
PATUXENT RIVER CLEAR     40  37  89 NW8       29.72R
BAY BRIDGE APT   N/A    N/A N/A N/A N5        29.74S
LEONARDTOWN    CLEAR     43  37  81 CALM      29.73S
DOVER          CLOUDY    41  38  87 N3        29.68F
GEORGETOWN     CLEAR     40  36  86 CALM      29.72S
EASTON         CLEAR     43  40  89 NE3       29.76S
CAMBRIDGE      CLEAR     43  39  87 CALM      29.71S
SALISBURY      CLEAR     38  36  92 CALM      29.71S
OCEAN CITY     CLEAR     37  35  92 NW3       29.71S
WALLOPS ISLAND CLEAR     42  38  85 CALM      29.71F
ACCOMACK*      CLEAR     37   5  25 SW3       29.71F
$$

NCZ012>017-030>032-270800-
NORTH CENTRAL AND EASTERN NORTH CAROLINA

CITY           SKY/WX    TMP DP  RH WIND       PRES   REMARKS
ROANOKE RAPIDS FAIR      41  41 100 CALM      29.75S
RALEIGH        PTCLDY    42  40  92 CALM      29.77F
ELIZABETH CITY CLEAR     41  40  96 CALM      29.73F FOG
AHOSKIE*       FOG       42  41  97 CALM      29.76S VSB 3/4
EDENTON*       CLEAR     42  41  97 CALM      29.74F
CURRITUCK*     CLEAR     44  41  91 CALM      29.74F
KILL DEVIL HLS CLEAR     48  38  67 CALM      29.71F
MANTEO         CLEAR     43  39  85 CALM      29.73F
CAPE HATTERAS  CLOUDY    52  41  66 VRB6      29.70F
TARBORO*       FOG       42  42  97 CALM      29.77S VSB 3/4
GOLDSBORO      PTCLDY    47  46  99 CALM      29.74F
WASHINGTON       N/A     44  44  98 CALM      29.75F
GREENVILLE     CLEAR     45  45 100 CALM      29.78F
NEW BERN       CLOUDY    51  47  86 NW7       29.77R
WILMINGTON     CLOUDY    51  49  92 N7        29.74F
$$

VAZ048-270800-
ELSEWHERE

CITY           SKY/WX    TMP DP  RH WIND       PRES   REMARKS
HARRISBURG PA  MOCLDY    41  33  73 CALM      29.74F
BALTIMORE      PTCLDY    44  31  60 CALM      29.74F
ANNAPOLIS      CLEAR     51  35  54 N6        29.73S
ANDREWS AFB    CLEAR     42  32  67 N9        29.72F
PHILADELPHIA   PTCLDY    48  29  47 NW6       29.74S
HENDERSON NC   PTCLDY    43  41  95 CALM      29.75F
GREENSBORO     PTCLDY    43  42  97 SW5       29.77F
ROCKY MOUNT    PTCLDY    45  43  93 NW3       29.76F
$$

VAZ100-270800-
MARINE

STATION/POSITION TIME  TEMP    WIND        PRES    WAVE   SWELL
                       AIR SEA DIR/SP/G            HT/PER HT/PER
                 (UTC) (F)     (DEG/KT/KT) (MB)    (FT/S) (FT/S)
BRANDYWINE LGT   0600   49 52  320/  5/  7 1006.5F
CAPE MAY NJ      0606   49 55  300/  5/  7 1006.0F
LEWES DE         0600   48 51  330/  6/  7 1006.3S
15NM E FENWICK I 0650   48 47              1005.5F   2/ 7
OCEAN-CITY-INLET 0600   47 51  250/  2/  3 1005.5F
WACHAPREAGUE VA  0600   44 56  260/  3/  3 1006.3F
THOMAS POINT MD  0700   53 54   30/ 16/ 17 1007.2R
GOOSES REEF MD   0700   53 53   20/ 14/ 17   N/A
COVE POINT MD    0600   51      CALM  /  1 1006.7F
SOLOMONS ISLAND  0606      56                N/A
BISHOPS HEAD MD  0606   53 56  180/  6/  7 1005.5F
PINEY POINT MD   0600          300/  2/  3   N/A
CAMBRIDGE MD     0606   48 58  300/  1/  3 1005.9F
LEWISETTA VA     0600   48 57              1005.8F
RAPPAHANNOCK LGT 0600          170/  8/  8 1006.9F
YORK RVR RNG VA  0606   54     240/  7/  8 1006.1F
YORKTOWN VA      0606   48 59  200/  3/  4 1006.6
JAMESTOWN VA     0700   48 62  250/  6/  6 1005.5F
DOMINION TERM VA 0600   54     250/  7/  8 1006.7F
KIPTOPEKE VA     0600      61  130/  2/  2   N/A
CHES BAY BRIDGE  0600   52 57  220/  6/  6 1006.3S
CAPE HENRY VA    0600   50     190/  5/  5 1005.4F
CHESAPEAKE LGHT  0600   50      CALM  /  1 1007.3F
WILLOUBY STN VA  0600   52     190/  5/  6 1007.3S
S CRANEY ISL VA  0606          220/  3/  3 1006.8R
CAPE HENRY BUOY  0628      51                N/A     3/ 6
OFFSHORE WE BUOY 0611      50                N/A     4/ 7   3/ 7
64NM E OF VA BCH 0650   54 55  340/  8/  8 1005.5R   4/ 7   3/ 7
DUCK PIER NC     0606   52 54   20/  3/  5 1005.6F
44056 DUCK FRF   0611      53                N/A     4/ 7
OREGON INLET NC  0606   49 54  320/  3/  5 1006.6F
HATTERAS NC      0600   56 60   30/  8/ 10 1005.8
DIAMOND SHLS NC  0650   60 75   10/ 19/ 23 1004.9F   7/10   3/10
CAPE LOOKOUT NC  0700   54     330/ 10/ 12 1006.5R
$$



USA.gov is the U.S. government's official web portal to all federal, state and local government web resources and services.